Location: Ladrillo (historical)
(32.8195°N, 117.2231°W)
Time: 03:45:38
(UTC+00:00)

CZ-4B R/B - Pass Details

Date: 29 October 2020
Orbit: 388 x 462 km, 97.6° (Epoch: 26 November)

Event Time Altitude Azimuth Distance (km) Brightness Sun altitude
Rises 12:02:46 0° 142° (SE) 2,480 5.7 -26.1°
Reaches altitude 10° 12:05:03 10° 129° (SE) 1,609 4.8 -25.6°
Maximum altitude 12:07:55 25° 73° (ENE) 983 3.7 -25.0°
Drops below altitude 10° 12:10:46 10° 17° (NNE) 1,606 4.4 -24.4°
Enters shadow 12:12:07 - 8° (N) 2,108 4.9 -24.2°
